This is the latest recevied weather packets stored in our database for station/object DJ2DS-13. If no packets are shown the sender has not sent any weather packets the latest 10 day(s).
| Time | Temp. | Humidity | Pressure | Rain* | Wind** | Luminosity | Snow |
|---|---|---|---|---|---|---|---|
| 1777818994 | 15° C | 87% | 1007.9 hPa | 7.11 mm | - | 9 W/m² | - |
| 1777818695 | 15.56° C | 86% | 1007.4 hPa | 1.27 mm | - | 0 W/m² | - |
| 1777818395 | 15.56° C | 86% | 1006.5 hPa | 0.25 mm | - | 19 W/m² | - |
| 1777818096 | 15.56° C | 85% | 1006.5 hPa | 0 mm | - | 30 W/m² | - |
| 1777817795 | 16.11° C | 84% | 1006.5 hPa | 0 mm | - | 56 W/m² | - |
| 1777817494 | 16.67° C | 83% | 1006.7 hPa | 0 mm | - | 67 W/m² | - |
| 1777817193 | 16.67° C | 83% | 1006.7 hPa | 0 mm | - | 35 W/m² | - |
| 1777816894 | 17.78° C | 80% | 1007 hPa | 0 mm | - | 11 W/m² | - |
| 1777816594 | 18.89° C | 78% | 1006.3 hPa | 0 mm | - | 14 W/m² | - |
| 1777816293 | 19.44° C | 77% | 1006 hPa | 0 mm | - | 28 W/m² | - |
| 1777815995 | 20° C | 77% | 1006.2 hPa | 0 mm | - | 37 W/m² | - |
| 1777815693 | 20° C | 77% | 1006.1 hPa | 0 mm | - | 88 W/m² | - |
| 1777815393 | 20.56° C | 76% | 1006.4 hPa | 0 mm | - | 97 W/m² | - |
| 1777815093 | 20.56° C | 75% | 1006.6 hPa | 0 mm | - | 90 W/m² | - |
| 1777814793 | 21.11° C | 74% | 1006.8 hPa | 0 mm | - | 127 W/m² | - |
| 1777814494 | 21.67° C | 73% | 1006.8 hPa | 0 mm | - | 169 W/m² | - |
| 1777814193 | 22.22° C | 72% | 1007.1 hPa | 0 mm | - | 165 W/m² | - |
| 1777813893 | 22.22° C | 72% | 1007.1 hPa | 0 mm | - | 171 W/m² | - |
| 1777813592 | 22.22° C | 73% | 1007.1 hPa | 0 mm | - | 517 W/m² | - |
| 1777813293 | 22.22° C | 72% | 1007.4 hPa | 0 mm | - | 404 W/m² | - |
| 1777812993 | 22.22° C | 73% | 1007.4 hPa | 0 mm | - | 644 W/m² | - |
| 1777812693 | 22.22° C | 72% | 1007.5 hPa | 0 mm | - | 723 W/m² | - |
| 1777812395 | 22.22° C | 69% | 1007.6 hPa | 0 mm | - | 622 W/m² | - |
| 1777811794 | 21.67° C | 70% | 1007.8 hPa | 0 mm | - | 550 W/m² | - |
| 1777811493 | 21.67° C | 71% | 1007.8 hPa | 0 mm | - | 292 W/m² | - |
* Rain latest hour (hover to see other rain measurements)
** Current wind speed in m/s (hover to see current wind gust speed)